• In Switzerland
  • List of Countries
  • For 7 days
  • Water Temperature
  • Satellite Maps
  • Weather Map
  • Weather Widgets
  • user-avatar
    Login

    Hourly Weather Uste

    Today, 25 September, Tuesday

    Time Temperature Precipitation Wind Pressure Humidity
    00:00 +10°C° 0.5 mm 7 mps 746 mmHg 76%
    01:00 +10°C° 0.4 mm 7 mps 745 mmHg 79%
    02:00 +10°C° 0.4 mm 7 mps 745 mmHg 81%
    03:00 +10°C° 0.4 mm 7 mps 744 mmHg 84%
    04:00 +10°C° 0.3 mm 6 mps 744 mmHg 85%
    05:00 +10°C° 0.3 mm 6 mps 744 mmHg 85%
    06:00 +10°C° 0.3 mm 6 mps 743 mmHg 86%
    07:00 +10°C° 0.3 mm 6 mps 743 mmHg 86%
    08:00 +9°C° 0.3 mm 5 mps 743 mmHg 85%
    09:00 +9°C° 0.3 mm 5 mps 743 mmHg 84%
    10:00 +10°C° 0.1 mm 5 mps 743 mmHg 80%
    11:00 +10°C° 0.1 mm 5 mps 744 mmHg 75%
    12:00 +10°C° 0.1 mm 6 mps 744 mmHg 71%
    13:00 +11°C° 0 mm 6 mps 744 mmHg 69%
    14:00 +11°C° 0 mm 6 mps 744 mmHg 67%
    15:00 +11°C° 0 mm 6 mps 745 mmHg 66%
    16:00 +10°C° 0 mm 5 mps 745 mmHg 67%
    17:00 +10°C° 0 mm 5 mps 746 mmHg 69%
    18:00 +9°C° 0 mm 5 mps 746 mmHg 71%
    19:00 +8°C° 0 mm 5 mps 747 mmHg 73%
    20:00 +8°C° 0 mm 5 mps 747 mmHg 76%
    21:00 +7°C° 0 mm 5 mps 748 mmHg 78%
    22:00 +7°C° 0 mm 5 mps 748 mmHg 79%
    23:00 +7°C° 0 mm 5 mps 749 mmHg 79%

    Tomorrow, 26 September, Wednesday

    Time Temperature Precipitation Wind Pressure Humidity
    00:00 +7°C° 0 mm 5 mps 749 mmHg 80%
    01:00 +7°C° 0 mm 5 mps 750 mmHg 80%
    02:00 +7°C° 0 mm 5 mps 750 mmHg 80%
    03:00 +7°C° 0 mm 5 mps 751 mmHg 80%
    04:00 +7°C° 0.1 mm 5 mps 751 mmHg 81%
    05:00 +6°C° 0.1 mm 5 mps 752 mmHg 81%
    06:00 +6°C° 0.1 mm 5 mps 752 mmHg 82%
    07:00 +6°C° 0.1 mm 5 mps 753 mmHg 81%
    08:00 +6°C° 0.1 mm 5 mps 754 mmHg 80%
    09:00 +6°C° 0.1 mm 5 mps 754 mmHg 79%
    10:00 +7°C° 0 mm 5 mps 755 mmHg 77%
    11:00 +7°C° 0 mm 4 mps 756 mmHg 76%
    12:00 +7°C° 0 mm 4 mps 756 mmHg 74%
    13:00 +7°C° 0 mm 4 mps 757 mmHg 72%
    14:00 +7°C° 0 mm 4 mps 757 mmHg 70%
    15:00 +8°C° 0 mm 4 mps 757 mmHg 68%
    16:00 +8°C° 0 mm 3 mps 757 mmHg 67%
    17:00 +8°C° 0 mm 3 mps 757 mmHg 67%
    18:00 +8°C° 0 mm 3 mps 758 mmHg 67%
    19:00 +7°C° 0 mm 3 mps 758 mmHg 68%
    20:00 +7°C° 0 mm 3 mps 758 mmHg 69%
    21:00 +5°C° 0 mm 3 mps 758 mmHg 70%
    22:00 +5°C° 0 mm 3 mps 757 mmHg 72%
    23:00 +4°C° 0 mm 3 mps 757 mmHg 74%

    Day after tomorrow, 27 September, Thursday

    Time Temperature Precipitation Wind Pressure Humidity
    00:00 +4°C° 0 mm 4 mps 757 mmHg 75%
    01:00 +4°C° 0 mm 4 mps 756 mmHg 74%
    02:00 +4°C° 0 mm 4 mps 755 mmHg 74%
    03:00 +3°C° 0 mm 5 mps 755 mmHg 73%
    04:00 +3°C° 0 mm 5 mps 754 mmHg 71%
    05:00 +4°C° 0 mm 6 mps 753 mmHg 68%
    06:00 +4°C° 0 mm 7 mps 752 mmHg 66%
    07:00 +4°C° 0.4 mm 7 mps 751 mmHg 68%
    08:00 +4°C° 0.4 mm 8 mps 751 mmHg 69%
    09:00 +5°C° 0.4 mm 8 mps 750 mmHg 71%
    10:00 +5°C° 1.2 mm 8 mps 749 mmHg 75%
    11:00 +3°C° 1.2 mm 9 mps 749 mmHg 78%
    12:00 +3°C° 1.2 mm 9 mps 748 mmHg 82%
    13:00 +5°C° 0.6 mm 8 mps 748 mmHg 84%
    14:00 +5°C° 0.6 mm 8 mps 747 mmHg 85%
    15:00 +6°C° 0.6 mm 7 mps 747 mmHg 87%
    16:00 +6°C° 0.5 mm 7 mps 747 mmHg 87%
    17:00 +6°C° 0.5 mm 7 mps 747 mmHg 87%
    18:00 +8°C° 0.5 mm 6 mps 747 mmHg 87%
    19:00 +7°C° 0.4 mm 5 mps 747 mmHg 86%
    20:00 +7°C° 0.4 mm 5 mps 748 mmHg 85%
    21:00 +7°C° 0.4 mm 4 mps 748 mmHg 85%
    22:00 +6°C° 0 mm 4 mps 749 mmHg 86%
    23:00 +5°C° 0 mm 4 mps 749 mmHg 87%

    28 September, Friday

    Time Temperature Precipitation Wind Pressure Humidity
    00:00 +5°C° 0 mm 4 mps 750 mmHg 88%
    01:00 +5°C° 0 mm 4 mps 750 mmHg 88%
    02:00 +4°C° 0 mm 4 mps 750 mmHg 88%
    03:00 +4°C° 0 mm 4 mps 751 mmHg 89%
    04:00 +4°C° 0 mm 4 mps 751 mmHg 89%
    05:00 +4°C° 0 mm 4 mps 751 mmHg 90%
    06:00 +3°C° 0 mm 4 mps 751 mmHg 91%
    07:00 +5°C° 0 mm 4 mps 751 mmHg 86%
    08:00 +6°C° 0 mm 4 mps 751 mmHg 81%
    09:00 +7°C° 0 mm 5 mps 752 mmHg 75%
    10:00 +9°C° 0 mm 5 mps 751 mmHg 68%
    11:00 +10°C° 0 mm 6 mps 751 mmHg 60%
    12:00 +12°C° 0 mm 7 mps 750 mmHg 52%
    13:00 +14°C° 0 mm 7 mps 750 mmHg 52%
    14:00 +13°C° 0 mm 8 mps 749 mmHg 53%
    15:00 +15°C° 0 mm 9 mps 748 mmHg 53%
    16:00 +13°C° 0.1 mm 8 mps 747 mmHg 62%
    17:00 +13°C° 0.1 mm 8 mps 747 mmHg 70%
    18:00 +12°C° 0.1 mm 7 mps 746 mmHg 79%
    19:00 +12°C° 0.3 mm 8 mps 746 mmHg 80%
    20:00 +13°C° 0.3 mm 8 mps 745 mmHg 81%
    21:00 +13°C° 0.3 mm 8 mps 745 mmHg 82%
    22:00 +13°C° 0.4 mm 8 mps 745 mmHg 83%
    23:00 +12°C° 0.4 mm 7 mps 745 mmHg 84%

    29 September, Saturday

    Time Temperature Precipitation Wind Pressure Humidity
    00:00 +12°C° 0.4 mm 7 mps 745 mmHg 85%
    01:00 +11°C° 0.1 mm 6 mps 746 mmHg 85%
    02:00 +9°C° 0.1 mm 5 mps 748 mmHg 86%
    03:00 +8°C° 0.1 mm 4 mps 749 mmHg 86%
    04:00 +6°C° 0 mm 4 mps 750 mmHg 87%
    05:00 +5°C° 0 mm 3 mps 751 mmHg 88%
    06:00 +4°C° 0 mm 3 mps 752 mmHg 90%
    07:00 +4°C° 0 mm 3 mps 753 mmHg 83%
    08:00 +5°C° 0 mm 3 mps 753 mmHg 77%
    09:00 +5°C° 0 mm 3 mps 754 mmHg 70%
    10:00 +7°C° 0 mm 3 mps 755 mmHg 62%
    11:00 +8°C° 0 mm 3 mps 755 mmHg 54%
    12:00 +9°C° 0 mm 2 mps 755 mmHg 46%
    13:00 +10°C° 0 mm 2 mps 755 mmHg 44%
    14:00 +10°C° 0 mm 2 mps 755 mmHg 42%
    15:00 +10°C° 0 mm 2 mps 756 mmHg 40%
    16:00 +9°C° 0 mm 2 mps 756 mmHg 45%
    17:00 +8°C° 0 mm 2 mps 756 mmHg 49%
    18:00 +8°C° 0 mm 1 mps 756 mmHg 53%
    19:00 +7°C° 0 mm 2 mps 757 mmHg 55%
    20:00 +7°C° 0 mm 2 mps 757 mmHg 57%
    21:00 +6°C° 0 mm 2 mps 758 mmHg 59%
    22:00 +6°C° 0 mm 2 mps 758 mmHg 62%
    23:00 +5°C° 0 mm 2 mps 758 mmHg 65%

    30 September, Sunday

    Time Temperature Precipitation Wind Pressure Humidity
    00:00 +4°C° 0 mm 2 mps 759 mmHg 69%
    01:00 +4°C° 0 mm 2 mps 759 mmHg 71%
    02:00 +3°C° 0 mm 2 mps 759 mmHg 74%
    03:00 +3°C° 0 mm 2 mps 760 mmHg 76%
    04:00 +2°C° 0 mm 2 mps 760 mmHg 77%
    05:00 +2°C° 0 mm 2 mps 760 mmHg 77%
    06:00 +2°C° 0 mm 2 mps 761 mmHg 77%
    07:00 +3°C° 0 mm 2 mps 761 mmHg 69%
    08:00 +4°C° 0 mm 2 mps 761 mmHg 61%
    09:00 +6°C° 0 mm 2 mps 762 mmHg 53%
    10:00 +7°C° 0 mm 2 mps 762 mmHg 49%
    11:00 +8°C° 0 mm 2 mps 762 mmHg 44%
    12:00 +9°C° 0 mm 2 mps 762 mmHg 40%
    13:00 +9°C° 0 mm 2 mps 762 mmHg 40%
    14:00 +9°C° 0 mm 2 mps 762 mmHg 39%
    15:00 +10°C° 0 mm 2 mps 762 mmHg 38%
    16:00 +9°C° 0 mm 1 mps 762 mmHg 43%
    17:00 +8°C° 0 mm 1 mps 762 mmHg 48%
    18:00 +5°C° 0 mm 0 mps 762 mmHg 53%
    19:00 +6°C° 0 mm 1 mps 762 mmHg 55%
    20:00 +5°C° 0 mm 1 mps 762 mmHg 57%
    21:00 +5°C° 0 mm 1 mps 762 mmHg 58%
    22:00 +4°C° 0 mm 1 mps 762 mmHg 60%
    23:00 +4°C° 0 mm 1 mps 762 mmHg 62%
    Show more